Tracking 18852 objects as of 22-Nov-2017
HD Live streaming from Space Station
objects crossing your sky now

COSMOS 1255

Track COSMOS 1255 now!
10-day predictions
COSMOS 1255 is classified as:


NORAD ID: 12325
Int'l Code: 1981-022F
Perigee: 1,452.6 km
Apogee: 1,478.6 km
Inclination: 74.0 °
Period: 115.1 minutes
Semi major axis: 7836 km
RCS: 0.7026 m2 (medium)
Launch date: March 6, 1981
Source: Commonwealth of Independent States (former USSR) (CIS)
Launch site: PLESETSK MISSILE AND SPACE COMPLEX (PKMTR)
aabbcc
Your satellite tracking list
Your tracking list is empty




NASA's NSSDC Master Catalog

Two Line Element Set (TLE):
1 12325U 81022F   17326.57318506 -.00000029 +00000-0 -84465-4 0  9994
2 12325 074.0275 120.0671 0016627 064.5643 002.5043 12.51443653677320
Source of the keplerian elements: AFSPC